Spokane Felts, WA
on Thursday, January 10, 2013

Thursday
Previous Day Next Day
Daily Summary
 ActualAverageRecord
Temperature
Mean Temperature °F 31°F  
Max Temperature 35°F 36°F 53°F (2006)
Min Temperature 28°F 25°F 6°F (1998)
Degree Days
Heating Degree Days 33 34  
Month to date heating degree days 346 349  
Since 1 July heating degree days 2514 3018  
Cooling Degree Days 0 0  
Month to date cooling degree days 0 0  
Year to date cooling degree days 0 0  
Moisture
Dew Point 24°F   
Average Humidity 77    
Maximum Humidity 85    
Minimum Humidity 69    
Precipitation
Precipitation 0.08 in 0.08 in 0.88 in (2006)
Month to date precipitation 0.86 0.69  
Year to date precipitation 0.86 0.69  
Wind
Wind Speed 4 mph   
Max Wind Speed 12 mph   
Max Gust Speed 14 mph   
Visibility 6 miles   
Events Fog , Snow   

Key: T is trace of precipitation, MM is missing value
Source: NWS Daily Summary
Time(PST)TemperatureDew PointHumidity Pressure Visibility Wind DirectionWind SpeedGust SpeedPrecipitationEvents Conditions
12:18 AM 35.6°F 28.4°F 75% 29.77 in 10.0 miles South 3.5 mph - N/A   Overcast
12:39 AM 33.8°F 28.4°F 81% 29.76 in 10.0 miles SSW 5.8 mph - N/A   Scattered Clouds
12:53 AM 34.0°F 27.0°F 75% 29.80 in 10.0 miles SSW 4.6 mph - N/A   Partly Cloudy
1:53 AM 33.1°F 27.0°F 78% 29.81 in 10.0 miles SW 3.5 mph - N/A   Clear
2:31 AM 33.8°F 26.6°F 75% 29.78 in 10.0 miles SSW 4.6 mph - N/A   Mostly Cloudy
2:53 AM 33.1°F 26.1°F 75% 29.81 in 10.0 miles SW 4.6 mph - N/A   Mostly Cloudy
3:38 AM 32.0°F 26.6°F 80% 29.77 in 10.0 miles South 3.5 mph - N/A   Overcast
3:53 AM 32.0°F 25.0°F 75% 29.81 in 10.0 miles SSW 5.8 mph - N/A   Mostly Cloudy
4:53 AM 30.9°F 25.0°F 79% 29.82 in 10.0 miles SSW 4.6 mph - N/A   Overcast
5:20 AM 30.2°F 24.8°F 80% 29.78 in 10.0 miles SSW 8.1 mph - N/A   Partly Cloudy
5:53 AM 30.0°F 24.1°F 79% 29.83 in 10.0 miles South 4.6 mph - N/A   Mostly Cloudy
6:23 AM 30.2°F 23.0°F 75% 29.80 in 10.0 miles SSW 5.8 mph - N/A   Scattered Clouds
6:53 AM 30.2°F 23.0°F 75% 29.81 in 10.0 miles Calm Calm - N/A   Partly Cloudy
7:53 AM 30.0°F 23.0°F 75% 29.86 in 10.0 miles Calm Calm - N/A   Partly Cloudy
8:19 AM 30.2°F 23.0°F 75% 29.82 in 10.0 miles SW 4.6 mph - N/A   Mostly Cloudy
8:53 AM 30.0°F 23.0°F 75% 29.87 in 10.0 miles WSW 9.2 mph - N/A   Overcast
9:53 AM 30.0°F 23.0°F 75% 29.87 in 10.0 miles SW 5.8 mph - N/A   Overcast
10:53 AM 30.9°F 23.0°F 72% 29.85 in 10.0 miles Calm Calm - N/A   Overcast
10:59 AM 30.2°F 23.0°F 75% 29.81 in 10.0 miles SW 3.5 mph - N/A   Overcast
11:53 AM 30.9°F 24.1°F 76% 29.85 in 10.0 miles WSW 6.9 mph - N/A   Overcast
12:53 PM 30.9°F 24.1°F 76% 29.84 in 10.0 miles WSW 4.6 mph - N/A   Overcast
1:53 PM 32.0°F 24.1°F 73% 29.85 in 9.0 miles Calm Calm - 0.00 in   Overcast
2:53 PM 32.0°F 24.1°F 73% 29.86 in 10.0 miles West 3.5 mph - N/A   Overcast
3:53 PM 32.0°F 24.1°F 73% 29.86 in 10.0 miles Calm Calm - N/A   Overcast
4:53 PM 33.1°F 24.1°F 70% 29.86 in 10.0 miles Variable 3.5 mph - 0.00 in   Overcast
5:18 PM 32.0°F 23.0°F 69% 29.82 in 2.0 miles West 5.8 mph - 0.00 in Snow Light Snow
5:20 PM 32.0°F 23.0°F 69% 29.82 in 4.0 miles West 5.8 mph - 0.00 in Snow Light Snow
5:25 PM 30.2°F 23.0°F 75% 29.82 in 4.0 miles West 6.9 mph - 0.00 in Snow Light Snow
5:53 PM 30.0°F 25.0°F 82% 29.88 in 1.0 miles Variable 4.6 mph - 0.00 in Snow Light Snow
5:59 PM 30.2°F 24.8°F 80% 29.83 in 0.8 miles WNW 9.2 mph - 0.01 in Snow Light Snow
6:10 PM 30.2°F 24.8°F 80% 29.83 in 0.5 miles West 4.6 mph - 0.01 in Snow Snow
6:17 PM 28.4°F 26.6°F 93% 29.83 in 0.5 miles West 5.8 mph - 0.02 in Fog , Snow Snow
6:51 PM 28.4°F 26.6°F 93% 29.83 in 0.5 miles WNW 8.1 mph - 0.05 in Fog , Snow Snow
6:53 PM 28.9°F 25.0°F 85% 29.88 in 0.5 miles WNW 8.1 mph - 0.05 in Fog , Snow Snow
7:14 PM 28.4°F 24.8°F 86% 29.83 in 0.5 miles West 6.9 mph - 0.01 in Fog , Snow Light Snow
7:27 PM 28.4°F 24.8°F 86% 29.83 in 0.5 miles West 5.8 mph - 0.01 in Fog , Snow Light Snow
7:53 PM 28.9°F 24.1°F 82% 29.88 in 0.5 miles WNW 4.6 mph - 0.01 in Snow Snow
7:56 PM 28.4°F 24.8°F 86% 29.83 in 2.0 miles Variable 3.5 mph - 0.00 in Snow Light Snow
8:09 PM 28.4°F 24.8°F 86% 29.83 in 1.8 miles Calm Calm - 0.00 in Snow Light Snow
8:43 PM 28.4°F 23.0°F 80% 29.84 in 2.0 miles Calm Calm - 0.01 in Snow Light Snow
8:53 PM 28.0°F 23.0°F 81% 29.89 in 2.5 miles SSE 3.5 mph - 0.01 in Snow Light Snow
8:58 PM 28.4°F 23.0°F 80% 29.84 in 3.0 miles Calm Calm - 0.00 in Snow Light Snow
9:10 PM 28.4°F 21.2°F 74% 29.84 in 2.0 miles Calm Calm - 0.00 in Snow Light Snow
9:14 PM 28.4°F 23.0°F 80% 29.84 in 1.8 miles SSE 4.6 mph - 0.00 in Snow Light Snow
9:22 PM 28.4°F 23.0°F 80% 29.84 in 1.8 miles South 5.8 mph - 0.00 in Snow Light Snow
9:53 PM 28.0°F 24.1°F 85% 29.90 in 1.5 miles Calm Calm - 0.01 in Snow Light Snow
10:14 PM 28.4°F 23.0°F 80% 29.85 in 2.0 miles Calm Calm - 0.00 in Snow Light Snow
10:32 PM 28.4°F 23.0°F 80% 29.85 in 2.5 miles Calm Calm - 0.00 in Snow Light Snow
10:41 PM 28.4°F 23.0°F 80% 29.85 in 3.0 miles Calm Calm - 0.00 in Snow Light Snow
10:53 PM 28.0°F 23.0°F 81% 29.91 in 4.0 miles Calm Calm - 0.00 in Snow Light Snow
11:53 PM 28.0°F 23.0°F 81% 29.92 in 5.0 miles Calm Calm - 0.00 in Snow Light Snow
Moon Phase
Jan. 10 Jan. 11 Jan. 18 Jan. 26 Feb. 03
Sunrise:07:35 AM (PST) Moon Rise:06:19 AM (PST)1/10
Sunset:04:18 PM (PST) Moon Set:03:32 PM (PST)1/10

Copyright © 2014 The Weather Underground, Inc.